Trenton, NJ

12:17 AM EST on February 10, 2016 (GMT -0500)
Trenton Mercer

Weather History for KTTN - June, 2012

Change the Weather History Date:

Friday, June 1, 2012

  Actual Average Record
Temperature  
Mean Temperature 67 °F 66 °F  
Max Temperature 75 °F 77 °F 98 °F (1895)
Min Temperature 59 °F 56 °F 43 °F (1938)
Degree Days  
Heating Degree Days 0 2  
Month to date heating degree days 0 2  
Since 1 June heating degree days 0 2  
Since 1 July heating degree days 3654 5138  
Cooling Degree Days 2 3  
Month to date cooling degree days 2 3  
Year to date cooling degree days 158 60  
Since 1 June cooling degree days 2 3  
Growing Degree Days 16 (Base 50)    
Moisture  
Dew Point 57 °F    
Average Humidity 73    
Maximum Humidity 93    
Minimum Humidity 53    
Precipitation  
Precipitation 0.46 in 0.16 in 2.04 in (2001)
Month to date precipitation 0.46 0.16  
Year to date precipitation 14.34 17.68  
Sea Level Pressure  
Sea Level Pressure 29.87 in    
Wind  
Wind Speed 11 mph (ESE)    
Max Wind Speed 20 mph    
Max Gust Speed 25 mph    
Visibility 9 miles    
Events Rain    
T = Trace of Precipitation, MM = Missing Value Source: NWS Daily Summary

Daily Weather History Graph

Daily Weather History Graph

Search for Another Location

Airport or City:

Trip Planner

Search our weather history database for the weather conditions in past years. The results will help you decide how hot, cold, wet, or windy it might be!

Date:

Astronomy

Jun. 01, 2012 Rise Set
Actual Time 5:31 AM EDT 8:23 PM EDT
Civil Twilight 4:59 AM EDT 8:55 PM EDT
Nautical Twilight 4:18 AM EDT 9:36 PM EDT
Astronomical Twilight 3:31 AM EDT 10:23 PM EDT
Moon 5:22 PM EDT (6/1) 3:05 AM EDT (6/1)
Length of Visible Light 15h 56m
Length of Day
14h 51m
Waxing Gibbous, 89% of the Moon is Illuminated
Jun 1
Waxing Gibbous
Jun 4
Full
Jun 11
Last Quarter
Jun 19
New
Jun 26
First Quarter

Hourly Weather History & Observations

Time (EDT) Temp. Dew Point Humidity Pressure Visibility Wind Dir Wind Speed Gust Speed Precip Events Conditions
12:53 AM 64.0 °F 50.0 °F 60% 29.93 in 10.0 mi North 4.6 mph - N/A   Clear
1:53 AM 61.0 °F 50.0 °F 67% 29.93 in 10.0 mi Calm Calm - N/A   Clear
2:53 AM 60.1 °F 50.0 °F 69% 29.93 in 10.0 mi Calm Calm - N/A   Clear
3:53 AM 60.1 °F 50.0 °F 69% 29.92 in 10.0 mi ENE 6.9 mph - N/A   Clear
4:53 AM 60.1 °F 50.0 °F 69% 29.94 in 10.0 mi NE 4.6 mph - N/A   Clear
5:53 AM 59.0 °F 48.9 °F 69% 29.94 in 10.0 mi ENE 8.1 mph - N/A   Clear
6:53 AM 60.8 °F 50.0 °F 68% 29.96 in 10.0 mi East 6.9 mph - N/A   Clear
7:53 AM 64.4 °F 51.8 °F 64% 29.97 in 10.0 mi East 10.4 mph 18.4 mph N/A   Clear
8:53 AM 69.1 °F 54.0 °F 58% 29.95 in 10.0 mi ESE 10.4 mph - N/A   Clear
9:53 AM 71.6 °F 55.4 °F 57% 29.97 in 10.0 mi East 12.7 mph - N/A   Clear
10:53 AM 73.0 °F 55.0 °F 53% 29.95 in 10.0 mi SE 15.0 mph 20.7 mph N/A   Clear
11:53 AM 72.0 °F 55.0 °F 55% 29.94 in 10.0 mi SE 12.7 mph - N/A   Scattered Clouds
12:53 PM 69.8 °F 57.2 °F 64% 29.94 in 10.0 mi SE 12.7 mph - N/A Rain Light Rain
1:53 PM 72.0 °F 60.1 °F 66% 29.91 in 10.0 mi SE 13.8 mph 20.7 mph 0.00 in   Partly Cloudy
2:53 PM 70.0 °F 60.1 °F 71% 29.88 in 10.0 mi SE 13.8 mph 23.0 mph N/A   Clear
3:53 PM 70.0 °F 59.0 °F 68% 29.86 in 10.0 mi SE 13.8 mph 21.9 mph N/A   Mostly Cloudy
4:53 PM 69.1 °F 59.0 °F 70% 29.84 in 10.0 mi ESE 17.3 mph 25.3 mph N/A   Mostly Cloudy
5:53 PM 66.9 °F 59.0 °F 76% 29.83 in 10.0 mi SE 15.0 mph 24.2 mph N/A   Mostly Cloudy
6:53 PM 66.0 °F 59.0 °F 78% 29.82 in 10.0 mi ESE 13.8 mph - N/A   Overcast
7:43 PM 66.2 °F 60.8 °F 83% 29.84 in 10.0 mi ESE 10.4 mph 20.7 mph N/A   Overcast
7:53 PM 64.9 °F 60.1 °F 84% 29.81 in 9.0 mi SE 17.3 mph 25.3 mph N/A   Overcast
8:53 PM 64.9 °F 61.0 °F 87% 29.78 in 10.0 mi ESE 16.1 mph 21.9 mph N/A   Overcast
9:41 PM 64.4 °F 62.6 °F 94% 29.76 in 4.0 mi ESE 16.1 mph 21.9 mph 0.03 in Rain Light Rain
9:53 PM 64.9 °F 63.0 °F 93% 29.74 in 3.0 mi ESE 15.0 mph - 0.09 in Rain Light Rain
10:53 PM 66.0 °F 64.9 °F 96% 29.71 in 5.0 mi SSE 10.4 mph - 0.19 in Rain Rain
11:53 PM 69.1 °F 68.0 °F 96% 29.68 in 7.0 mi SSE 10.4 mph - 0.02 in   Overcast